Regional Weather Roundup
Issued by NWS

Home | Current Version | Previous Version | Text Only | Print | Product List | Glossary On
Versions: 1 2 3 4 5 6 7 8 9 10 11 12 13 14 15 16 17 18 19 20 21 22 23 24 25 26 27 28 29 30 31 32 33 34 35 36 37 38 39 40 41 42 43 44 45 46 47 48 49 50
948
ASUS43 KMPX 221510
RWRMN
WEATHER ROUNDUP FOR MINNESOTA
NATIONAL WEATHER SERVICE TWIN CITIES/CHANHASSEN MN
1000 AM CDT FRI MAY 22 2015


NOTE: "FAIR" INDICATES FEW OR NO CLOUDS BELOW 12,000 FEET WITH NO
SIGNIFICANT WEATHER AND/OR OBSTRUCTIONS TO VISIBILITY. N/A MEANS
CURRENT SKY AND/OR WEATHER CONDITIONS ARE NOT AVAILABLE.

MNZ060>063-068>070-221600-
   Twin Cities Metro

CITY           SKY/WX    TMP DP  RH WIND       PRES   REMARKS
TWIN CITIES    SUNNY     65  37  35 CALM      30.21R
ST PAUL        SUNNY     65  37  35 CALM      30.21S
CRYSTAL        SUNNY     65  33  30 VRB3      30.20S
BLAINE         SUNNY     64  36  34 CALM      30.21
LAKEVILLE      SUNNY     63  37  39 CALM      30.21R
EDEN PRAIRIE   SUNNY     64  37  36 SE3       30.21R
SOUTH ST PAUL  SUNNY     64  36  35 CALM      30.21R
LAKE ELMO      FAIR      63  39  42 CALM      30.22S
$$
MNZ001>005-007-008-013>017-022>024-027-028-221600-
   Northwest Minnesota

CITY           SKY/WX    TMP DP  RH WIND       PRES   REMARKS
BEMIDJI        SUNNY     61  35  37 CALM      30.20F
HALLOCK        SUNNY     64  43  45 S13       30.16F
ROSEAU         SUNNY     64  37  36 SW9       30.18S
WARROAD        SUNNY     63  39  42 SW9       30.18S
THIEF RVR FALL SUNNY     61  36  39 S6        30.21R
CROOKSTON      SUNNY     63  36  36 S6        30.20S
FOSSTON        SUNNY     64  36  34 CALM      30.21S
DETROIT LAKES  SUNNY     63  32  31 CALM      30.21S
MOORHEAD       SUNNY     63  43  48 S5        30.20S
PARK RAPIDS    SUNNY     64  36  35 CALM      30.20S
MAHNOMEN       FAIR      62  33  34 NE3       30.20F
$$
MNZ006-009>011-018-025>026-221600-
   North Central Minnesota

CITY           SKY/WX    TMP DP  RH WIND       PRES   REMARKS
BAUDETTE       PTSUNNY   60  38  43 VRB3      30.18S
FLAG ISLAND    SUNNY     52  43  71 SE7       30.16R
INTL FALLS     SUNNY     62  30  29 W6        30.18S
WASKISH        SUNNY     63  39  42 CALM      30.19F
BIG FORK       SUNNY     64  34  32 CALM      30.20F
LONGVILLE      SUNNY     63  32  31 W3        30.21S
GRAND RAPIDS   SUNNY     61  30  31 SW3       30.22S
CRANE LAKE     SUNNY     59  25  27 NW3       30.21S
ORR            SUNNY     61  27  27 CALM      30.18S
COOK           SUNNY     61  32  33 W5        30.21S
WALKER         FAIR      60  35  37 E3        30.21S
$$
MNZ012-019>021-037-221600-
   Northeast Minnesota

CITY           SKY/WX    TMP DP  RH WIND       PRES   REMARKS
DULUTH         SUNNY     61  32  33 VRB6      30.21S
ELY            SUNNY     57  25  28 CALM      30.20S
HIBBING        SUNNY     62  29  28 VRB3      30.20F
EVELETH        SUNNY     59  32  36 NW7       30.22S
DULUTH HARBOR  SUNNY     45  37  76 N3        30.25S
TWO HARBORS    SUNNY     57  37  47 SE6       30.21S
SILVER BAY     SUNNY     57  30  35 SE6       30.20S
GRAND MARAIS     N/A     41  32  70 E6        30.24R
G MARAIS ARPRT SUNNY     54  21  28 S6        30.21S
$$
MNZ029>031-032-039>041-046>048-054>057-064-221600-
   West Central Minnesota

CITY           SKY/WX    TMP DP  RH WIND       PRES   REMARKS
FERGUS FALLS   SUNNY     64  36  34 CALM      30.20S
WHEATON        SUNNY     63  43  48 CALM      30.22S
MORRIS         SUNNY     64  43  45 CALM      30.20R
ALEXANDRIA     SUNNY     63  35  35 S8        30.22R
ELBOW LAKE     FAIR      62  41  45 S3        30.20S
WADENA         SUNNY     61  37  41 CALM      30.20S
GLENWOOD       SUNNY     63  36  36 S7        30.22R
APPLETON       SUNNY     64  43  45 CALM      30.20S
BENSON         SUNNY     64  36  34 S8        30.21S
ORTONVILLE     SUNNY     64  39  39 CALM      30.20S
MADISON        SUNNY     64  41  42 S3        30.20S
WILLMAR        FAIR      64  39  39 S3        30.23R
$$
MNZ033>034-036-042>043-049>051-058-059-221600-
   Central Minnesota

CITY           SKY/WX    TMP DP  RH WIND       PRES   REMARKS
ST CLOUD       SUNNY     63  34  33 VRB3      30.21S
SAUK CENTRE    FAIR      62  37  40 S3        30.22R
PAYNESVILLE    SUNNY     59  35  40 E7        30.22S
AITKIN         SUNNY     63  27  25 SW3       30.21S
PINE RIVER     SUNNY     61  36  39 CALM      30.24S
BRAINERD       SUNNY     62  34  35 CALM      30.22S
STAPLES        SUNNY     63  30  29 CALM      30.21S
LONG PRAIRIE   FAIR      61  34  36 E3        30.22R
LITTLE FALLS   SUNNY     63  32  31 SE3       30.21S
LITCHFIELD     SUNNY     64  36  34 CALM      30.22S
BUFFALO        SUNNY     63  34  34 CALM      30.23R
MAPLE LAKE     SUNNY     64  39  40 CALM      30.23R
$$
MNZ037-044-045-052-053-221600-
   East Central Minnesota

CITY           SKY/WX    TMP DP  RH WIND       PRES   REMARKS
PRINCETON      SUNNY     64  32  29 CALM      30.22R
MORA           SUNNY     61  32  33 CALM      30.23S
CAMBRIDGE      SUNNY     64  43  45 CALM      30.20S
RUSH CITY      SUNNY     61  40  45 CALM      30.22S
MOOSE LAKE     SUNNY     61  32  33 CALM      30.21S
HINCKLEY       FAIR      61  34  36 CALM      30.22F
CLOQUET        SUNNY     61  27  27 S3        30.22S
MCGREGOR       SUNNY     61  32  33 W3        30.22F
$$
MNZ071>073-080-081-089-090-097-098-221600-
   Southwest Minnesota

CITY           SKY/WX    TMP DP  RH WIND       PRES   REMARKS
MONTEVIDEO     SUNNY     64  37  36 S8        30.22S
GRANITE FALLS  SUNNY     64  39  39 S8        30.23S
CANBY          SUNNY     64  39  39 CALM      30.22S
MARSHALL       SUNNY     64  36  34 E3        30.21S
REDWOOD FALLS  SUNNY     65  35  33 S7        30.22R
OLIVIA         SUNNY     61  34  36 SE6       30.21R
PIPESTONE      SUNNY     64  34  32 SE5       30.21R
WORTHINGTON    SUNNY     64  34  32 CALM      30.21S
JACKSON        SUNNY     66  30  26 NE5       30.22S
TRACY          SUNNY     65  38  36 CALM      30.22S
SLAYTON        SUNNY     64  34  32 CALM      30.22S
$$
MNZ065>067-074>077-082>085-091>093-221600-
   South Central Minnesota

CITY           SKY/WX    TMP DP  RH WIND       PRES   REMARKS
MANKATO        SUNNY     64  39  39 CALM      30.22R
NEW ULM        SUNNY     63  37  39 S3        30.22R
FAIRMONT       SUNNY     64  34  32 E3        30.22R
GLENCOE        SUNNY     66  36  33 E3        30.21R
FARIBAULT      SUNNY     64  36  34 CALM      30.22R
OWATONNA       SUNNY     64  34  32 CALM      30.21S
WASECA         SUNNY     63  39  42 CALM      30.23R
ALBERT LEA     SUNNY     64  39  39 CALM      30.22R
$$
MNZ078>079-086>088-094>096-221600-
   Southeast Minnesota

CITY           SKY/WX    TMP DP  RH WIND       PRES   REMARKS
ROCHESTER      SUNNY     64  38  38 N3        30.23R
RED WING       SUNNY     63  39  42 SW3       30.19S
STANTON        SUNNY     64  35  34 CALM      30.20R
DODGE CENTER   SUNNY     64  32  29 E5        30.21S
WINONA         SUNNY     59  43  55 SE3       30.20R
AUSTIN         SUNNY     64  45  48 CALM      30.21R
PRESTON        SUNNY     62  37  40 CALM      30.21R
$$
ABBREVIATIONS USED IN REMARKS
   TC - TEMPERATURES IN CELSIUS
  WCI - WIND CHILL INDEX
   HX - HEAT INDEX
  VSB - VISIBILITY
$$



USA.gov is the U.S. government's official web portal to all federal, state and local government web resources and services.